When you browse on this site, cookies collect data to enhance your experience and personalize the content and advertising you see.
Visit our Privacy Policy to learn more. By continuing to use the site, you agree to this use of cookies and data.
  • In Spain
  • List of Countries
  • For 7 days
  • Water Temperature
  • Weather Map
  • Weather Widgets
  • user-avatar
    Login

    Hourly Weather Escaldes-Engordany

    Today, 6 April, Monday

    Time Temperature Precipitation Wind Pressure Humidity
    00:00 +3°C° 0 mm 1 mps 638 mmHg 88%
    01:00 +3°C° 0 mm 1 mps 638 mmHg 86%
    02:00 +4°C° 0 mm 1 mps 638 mmHg 84%
    03:00 +4°C° 0 mm 1 mps 638 mmHg 82%
    04:00 +4°C° 0 mm 1 mps 638 mmHg 81%
    05:00 +4°C° 0 mm 1 mps 638 mmHg 80%
    06:00 +5°C° 0 mm 1 mps 639 mmHg 80%
    07:00 +6°C° 0 mm 1 mps 640 mmHg 75%
    08:00 +8°C° 0 mm 1 mps 641 mmHg 70%
    09:00 +10°C° 0 mm 1 mps 642 mmHg 64%
    10:00 +11°C° 0 mm 1 mps 642 mmHg 62%
    11:00 +12°C° 0 mm 2 mps 643 mmHg 60%
    12:00 +13°C° 0 mm 2 mps 643 mmHg 58%
    13:00 +12°C° 0 mm 2 mps 643 mmHg 62%
    14:00 +12°C° 0 mm 2 mps 642 mmHg 66%
    15:00 +11°C° 0 mm 1 mps 642 mmHg 70%
    16:00 +10°C° 0 mm 1 mps 642 mmHg 74%
    17:00 +9°C° 0 mm 1 mps 642 mmHg 79%
    18:00 +9°C° 0 mm 1 mps 642 mmHg 84%
    19:00 +8°C° 0 mm 1 mps 642 mmHg 87%
    20:00 +7°C° 0 mm 1 mps 642 mmHg 90%
    21:00 +6°C° 0 mm 1 mps 642 mmHg 93%
    22:00 +6°C° 0 mm 1 mps 642 mmHg 93%
    23:00 +6°C° 0 mm 1 mps 642 mmHg 94%

    Tomorrow, 7 April, Tuesday

    Time Temperature Precipitation Wind Pressure Humidity
    00:00 +6°C° 0 mm 1 mps 642 mmHg 94%
    01:00 +6°C° 0 mm 1 mps 642 mmHg 94%
    02:00 +6°C° 0 mm 1 mps 642 mmHg 93%
    03:00 +6°C° 0 mm 1 mps 642 mmHg 93%
    04:00 +6°C° 0 mm 1 mps 642 mmHg 93%
    05:00 +6°C° 0 mm 1 mps 642 mmHg 93%
    06:00 +6°C° 0 mm 1 mps 642 mmHg 92%
    07:00 +7°C° 0 mm 1 mps 643 mmHg 87%
    08:00 +8°C° 0 mm 1 mps 643 mmHg 83%
    09:00 +10°C° 0 mm 1 mps 644 mmHg 78%
    10:00 +10°C° 0 mm 1 mps 644 mmHg 77%
    11:00 +9°C° 0 mm 2 mps 644 mmHg 76%
    12:00 +10°C° 0 mm 2 mps 644 mmHg 74%
    13:00 +9°C° 0.1 mm 2 mps 644 mmHg 77%
    14:00 +10°C° 0.1 mm 1 mps 644 mmHg 80%
    15:00 +10°C° 0.1 mm 1 mps 643 mmHg 83%
    16:00 +9°C° 0.1 mm 1 mps 643 mmHg 86%
    17:00 +8°C° 0.1 mm 1 mps 643 mmHg 88%
    18:00 +8°C° 0.1 mm 1 mps 643 mmHg 91%
    19:00 +7°C° 0 mm 1 mps 643 mmHg 92%
    20:00 +7°C° 0 mm 1 mps 643 mmHg 93%
    21:00 +6°C° 0 mm 1 mps 643 mmHg 94%
    22:00 +6°C° 0 mm 1 mps 643 mmHg 94%
    23:00 +6°C° 0 mm 1 mps 643 mmHg 94%

    Day after tomorrow, 8 April, Wednesday

    Time Temperature Precipitation Wind Pressure Humidity
    00:00 +6°C° 0 mm 1 mps 643 mmHg 94%
    01:00 +5°C° 0 mm 1 mps 642 mmHg 94%
    02:00 +5°C° 0 mm 1 mps 642 mmHg 94%
    03:00 +5°C° 0 mm 1 mps 642 mmHg 93%
    04:00 +5°C° 0 mm 1 mps 642 mmHg 93%
    05:00 +5°C° 0 mm 1 mps 642 mmHg 92%
    06:00 +5°C° 0 mm 1 mps 642 mmHg 92%
    07:00 +7°C° 0 mm 1 mps 643 mmHg 83%
    08:00 +9°C° 0 mm 1 mps 644 mmHg 75%
    09:00 +12°C° 0 mm 1 mps 645 mmHg 67%
    10:00 +12°C° 0.1 mm 1 mps 645 mmHg 66%
    11:00 +13°C° 0.1 mm 1 mps 644 mmHg 64%
    12:00 +13°C° 0.1 mm 1 mps 644 mmHg 63%
    13:00 +13°C° 0.4 mm 1 mps 644 mmHg 66%
    14:00 +12°C° 0.4 mm 1 mps 644 mmHg 69%
    15:00 +12°C° 0.4 mm 1 mps 643 mmHg 72%
    16:00 +11°C° 0.3 mm 1 mps 643 mmHg 76%
    17:00 +10°C° 0.3 mm 1 mps 643 mmHg 80%
    18:00 +10°C° 0.3 mm 1 mps 642 mmHg 85%
    19:00 +9°C° 0 mm 1 mps 642 mmHg 87%
    20:00 +8°C° 0 mm 1 mps 642 mmHg 90%
    21:00 +7°C° 0 mm 1 mps 642 mmHg 93%
    22:00 +6°C° 0 mm 1 mps 642 mmHg 92%
    23:00 +6°C° 0 mm 1 mps 642 mmHg 91%

    9 April, Thursday

    Time Temperature Precipitation Wind Pressure Humidity
    00:00 +6°C° 0 mm 1 mps 642 mmHg 90%
    01:00 +6°C° 0 mm 1 mps 641 mmHg 88%
    02:00 +6°C° 0 mm 1 mps 641 mmHg 86%
    03:00 +6°C° 0 mm 1 mps 641 mmHg 85%
    04:00 +6°C° 0 mm 1 mps 641 mmHg 82%
    05:00 +6°C° 0 mm 1 mps 641 mmHg 80%
    06:00 +6°C° 0 mm 1 mps 641 mmHg 77%
    07:00 +9°C° 0 mm 1 mps 642 mmHg 70%
    08:00 +12°C° 0 mm 1 mps 643 mmHg 63%
    09:00 +13°C° 0 mm 0 mps 644 mmHg 55%
    10:00 +15°C° 0 mm 1 mps 644 mmHg 53%
    11:00 +16°C° 0 mm 1 mps 644 mmHg 51%
    12:00 +16°C° 0 mm 2 mps 644 mmHg 49%
    13:00 +16°C° 0.1 mm 2 mps 644 mmHg 54%
    14:00 +15°C° 0.1 mm 2 mps 643 mmHg 58%
    15:00 +15°C° 0.1 mm 2 mps 643 mmHg 63%
    16:00 +14°C° 0.2 mm 1 mps 642 mmHg 70%
    17:00 +12°C° 0.2 mm 1 mps 642 mmHg 78%
    18:00 +11°C° 0.2 mm 1 mps 641 mmHg 85%
    19:00 +10°C° 0.1 mm 1 mps 641 mmHg 88%
    20:00 +10°C° 0.1 mm 1 mps 641 mmHg 91%
    21:00 +9°C° 0.1 mm 1 mps 641 mmHg 94%
    22:00 +8°C° 0 mm 1 mps 641 mmHg 94%
    23:00 +8°C° 0 mm 1 mps 641 mmHg 93%

    10 April, Friday

    Time Temperature Precipitation Wind Pressure Humidity
    00:00 +8°C° 0 mm 1 mps 641 mmHg 93%
    01:00 +8°C° 0 mm 1 mps 640 mmHg 92%
    02:00 +7°C° 0 mm 1 mps 640 mmHg 91%
    03:00 +7°C° 0 mm 1 mps 640 mmHg 90%
    04:00 +7°C° 0 mm 1 mps 640 mmHg 88%
    05:00 +7°C° 0 mm 1 mps 640 mmHg 86%
    06:00 +7°C° 0 mm 1 mps 640 mmHg 85%
    07:00 +9°C° 0 mm 1 mps 641 mmHg 78%
    08:00 +11°C° 0 mm 1 mps 642 mmHg 71%
    09:00 +13°C° 0 mm 1 mps 642 mmHg 65%
    10:00 +14°C° 0.1 mm 1 mps 642 mmHg 65%
    11:00 +14°C° 0.1 mm 2 mps 643 mmHg 64%
    12:00 +15°C° 0.1 mm 2 mps 643 mmHg 64%
    13:00 +14°C° 0.8 mm 2 mps 642 mmHg 70%
    14:00 +13°C° 0.8 mm 2 mps 642 mmHg 76%
    15:00 +12°C° 0.8 mm 2 mps 641 mmHg 82%
    16:00 +11°C° 1.1 mm 1 mps 641 mmHg 86%
    17:00 +11°C° 1.1 mm 1 mps 641 mmHg 89%
    18:00 +10°C° 1.1 mm 1 mps 641 mmHg 93%
    19:00 +10°C° 0.7 mm 1 mps 641 mmHg 94%
    20:00 +9°C° 0.7 mm 1 mps 641 mmHg 95%
    21:00 +8°C° 0.7 mm 0 mps 641 mmHg 96%
    22:00 +8°C° 0.2 mm 0 mps 641 mmHg 96%
    23:00 +7°C° 0.2 mm 0 mps 641 mmHg 96%

    11 April, Saturday

    Time Temperature Precipitation Wind Pressure Humidity
    00:00 +7°C° 0.2 mm 0 mps 641 mmHg 97%
    01:00 +7°C° 0.2 mm 0 mps 641 mmHg 96%
    02:00 +7°C° 0.2 mm 0 mps 641 mmHg 96%
    03:00 +7°C° 0.2 mm 0 mps 640 mmHg 96%
    04:00 +8°C° 0.3 mm 1 mps 641 mmHg 95%
    05:00 +8°C° 0.3 mm 1 mps 641 mmHg 95%
    06:00 +8°C° 0.3 mm 1 mps 641 mmHg 94%
    07:00 +9°C° 0.3 mm 1 mps 641 mmHg 92%
    08:00 +9°C° 0.3 mm 1 mps 642 mmHg 89%
    09:00 +10°C° 0.3 mm 1 mps 642 mmHg 86%
    10:00 +10°C° 0.6 mm 1 mps 642 mmHg 87%
    11:00 +10°C° 0.6 mm 1 mps 642 mmHg 87%
    12:00 +10°C° 0.6 mm 1 mps 642 mmHg 87%
    13:00 +10°C° 0.9 mm 1 mps 642 mmHg 88%
    14:00 +10°C° 0.9 mm 1 mps 641 mmHg 88%
    15:00 +10°C° 0.9 mm 1 mps 641 mmHg 88%
    16:00 +10°C° 1.3 mm 1 mps 641 mmHg 90%
    17:00 +9°C° 1.3 mm 1 mps 640 mmHg 93%
    18:00 +8°C° 1.3 mm 1 mps 640 mmHg 95%
    19:00 +8°C° 0.9 mm 1 mps 641 mmHg 95%
    20:00 +8°C° 0.9 mm 1 mps 641 mmHg 95%
    21:00 +7°C° 0.9 mm 1 mps 641 mmHg 95%
    22:00 +7°C° 0.5 mm 1 mps 641 mmHg 95%
    23:00 +7°C° 0.5 mm 1 mps 641 mmHg 95%
    Show more